Weather History for KDBQ - March, 2013

Change the Weather History Date:

Sunday, March 31, 2013

  Actual Average Record
Temperature  
Mean Temperature 38 °F 42 °F  
Max Temperature 47 °F 52 °F 79 °F (1986)
Min Temperature 29 °F 32 °F 8 °F (1969)
Degree Days  
Heating Degree Days 27 23  
Month to date heating degree days 1173 918  
Since 1 July heating degree days 6423 6311  
Cooling Degree Days 0 0  
Month to date cooling degree days 0 0  
Year to date cooling degree days 0 0  
Moisture  
Dew Point 33 °F    
Average Humidity 77    
Maximum Humidity 100    
Minimum Humidity 53    
Precipitation  
Precipitation 0.00 in 0.10 in 1.25 in (1877)
Month to date precipitation 2.57 2.41  
Year to date precipitation 5.99 5.02  
Snow  
Snow 0.00 in 0.10 in - ()
Month to date snowfall 12.6 6.3  
Since 1 July snowfall 54.5 39.9  
Snow Depth 0.00 in    
Sea Level Pressure  
Sea Level Pressure 29.84 in    
Wind  
Wind Speed 13 mph (WNW)    
Max Wind Speed 26 mph    
Max Gust Speed 33 mph    
Visibility 4 miles    
Events Fog    
T = Trace of Precipitation, MM = Missing Value Source: NWS Daily Summary

Daily Weather History Graph

Daily Weather History Graph

Search for Another Location

Airport or City:

Trip Planner

Search our weather history database for the weather conditions in past years. The results will help you decide how hot, cold, wet, or windy it might be!

Date:

Astronomy

Mar. 31, 2013 Rise Set
Actual Time 6:46 AM CDT 7:27 PM CDT
Civil Twilight 6:18 AM CDT 7:56 PM CDT
Nautical Twilight 5:44 AM CDT 8:29 PM CDT
Astronomical Twilight 5:10 AM CDT 9:04 PM CDT
Moon No Moon Rise 9:29 AM CDT (3/31)
Length of Visible Light 13h 38m
Length of Day
12h 41m
Waning Gibbous, 77% of the Moon is Illuminated
Mar 31
Waning Gibbous
Apr 2
Last Quarter
Apr 10
New
Apr 18
First Quarter
Apr 25
Full

Hourly Weather History & Observations

Time (CDT) Temp. Windchill Dew Point Humidity Pressure Visibility Wind Dir Wind Speed Gust Speed Precip Events Conditions
12:08 AM 42.8 °F 37.5 °F 42.8 °F 100% 29.85 in 4.0 mi NW 9.2 mph - N/A   Overcast
12:53 AM 42.1 °F 36.1 °F 41.0 °F 96% 29.86 in 5.0 mi NW 10.4 mph - N/A   Overcast
1:53 AM 41.0 °F 36.4 °F 39.9 °F 96% 29.85 in 4.0 mi NNW 6.9 mph - N/A   Overcast
2:37 AM 39.2 °F 33.6 °F 39.2 °F 100% 29.83 in 4.0 mi NNW 8.1 mph - N/A   Overcast
2:53 AM 39.9 °F 35.8 °F 39.9 °F 100% 29.85 in 4.0 mi NW 5.8 mph - N/A   Overcast
3:38 AM 39.2 °F 33.6 °F 39.2 °F 100% 29.82 in 2.5 mi West 8.1 mph - N/A   Overcast
3:48 AM 39.2 °F 33.6 °F 39.2 °F 100% 29.82 in 1.2 mi WNW 8.1 mph - N/A   Overcast
3:53 AM 39.0 °F 34.0 °F 39.0 °F 100% 29.84 in 1.0 mi WNW 6.9 mph - N/A   Overcast
4:13 AM 39.2 °F 33.6 °F 39.2 °F 100% 29.82 in 0.5 mi West 8.1 mph - N/A Fog Fog
4:53 AM 37.9 °F 32.7 °F 37.9 °F 100% 29.83 in 0.5 mi West 6.9 mph - N/A Fog Fog
5:14 AM 37.4 °F 32.1 °F 37.4 °F 100% 29.81 in 0.5 mi West 6.9 mph - N/A Fog Fog
5:27 AM 35.6 °F 29.9 °F 35.6 °F 100% 29.82 in 0.2 mi West 6.9 mph - N/A Fog Fog
5:39 AM 35.6 °F 29.9 °F 35.6 °F 100% 29.81 in 0.2 mi West 6.9 mph - N/A Fog Fog
5:51 AM 35.6 °F 31.7 °F 35.6 °F 100% 29.81 in 0.2 mi West 4.6 mph - N/A Fog Fog
5:53 AM 35.1 °F 30.1 °F 35.1 °F 100% 29.84 in 0.2 mi West 5.8 mph - N/A Fog Fog
6:11 AM 33.8 °F 28.6 °F 33.8 °F 100% 29.82 in 0.2 mi West 5.8 mph - N/A Fog Fog
6:26 AM 33.8 °F 28.6 °F 33.8 °F 100% 29.81 in 0.2 mi West 5.8 mph - N/A Fog Fog
6:35 AM 33.8 °F 27.7 °F 33.8 °F 100% 29.81 in 0.5 mi WNW 6.9 mph - N/A Fog Fog
6:53 AM 32.0 °F 25.6 °F 32.0 °F 100% 29.83 in 1.0 mi WNW 6.9 mph - N/A   Mist
7:05 AM 32.0 °F 26.4 °F 32.0 °F 100% 29.80 in 1.8 mi WSW 5.8 mph - N/A   Scattered Clouds
7:12 AM 32.0 °F 26.4 °F 32.0 °F 100% 29.81 in 0.2 mi SW 5.8 mph - N/A Fog Fog
7:19 AM 32.0 °F 25.6 °F 32.0 °F 100% 29.81 in 0.2 mi SW 6.9 mph - N/A Fog Fog
7:53 AM 32.0 °F 26.4 °F 32.0 °F 100% 29.83 in 0.2 mi SW 5.8 mph - N/A Fog Fog
8:15 AM 33.8 °F 29.6 °F 33.8 °F 100% 29.80 in 0.2 mi SW 4.6 mph - N/A Fog Fog
8:20 AM 33.8 °F 29.6 °F 33.8 °F 100% 29.80 in 0.2 mi SW 4.6 mph - N/A Fog Fog
8:27 AM 33.8 °F 29.6 °F 33.8 °F 100% 29.80 in 0.2 mi WSW 4.6 mph - N/A Fog Fog
8:37 AM 33.8 °F 27.7 °F 33.8 °F 100% 29.80 in 0.8 mi WSW 6.9 mph - N/A   Mist
8:41 AM 33.8 °F 28.6 °F 33.8 °F 100% 29.80 in 2.0 mi WSW 5.8 mph - N/A   Mostly Cloudy
8:49 AM 33.8 °F 27.7 °F 33.8 °F 100% 29.80 in 4.0 mi SW 6.9 mph - N/A   Mostly Cloudy
8:53 AM 34.0 °F 28.8 °F 34.0 °F 100% 29.82 in 4.0 mi SW 5.8 mph - N/A   Partly Cloudy
9:53 AM 39.9 °F 31.8 °F 37.0 °F 89% 29.83 in 7.0 mi West 15.0 mph - N/A   Partly Cloudy
10:15 AM 37.4 °F 28.2 °F 35.6 °F 93% 29.81 in 5.0 mi WNW 16.1 mph - N/A   Mostly Cloudy
10:33 AM 35.6 °F 25.2 °F 33.8 °F 93% 29.81 in 4.0 mi WNW 18.4 mph - N/A   Overcast
10:53 AM 37.0 °F 28.1 °F 35.1 °F 93% 29.84 in 6.0 mi West 15.0 mph - N/A   Mostly Cloudy
11:53 AM 39.9 °F 31.4 °F 35.1 °F 83% 29.84 in 6.0 mi West 16.1 mph - N/A   Haze
12:53 PM 42.1 °F 33.6 °F 36.0 °F 79% 29.84 in 7.0 mi WNW 18.4 mph 25.3 mph N/A   Mostly Cloudy
1:16 PM 41.0 °F 31.9 °F 33.8 °F 76% 29.82 in 7.0 mi WNW 19.6 mph 28.8 mph N/A   Mostly Cloudy
1:44 PM 42.8 °F 34.3 °F 32.0 °F 66% 29.83 in 8.0 mi NW 19.6 mph 29.9 mph N/A   Mostly Cloudy
1:53 PM 44.1 °F 36.8 °F 34.0 °F 68% 29.84 in 8.0 mi NW 16.1 mph - N/A   Mostly Cloudy
2:53 PM 46.0 °F 38.0 °F 30.9 °F 56% 29.83 in 10.0 mi WNW 21.9 mph 29.9 mph N/A   Mostly Cloudy
3:43 PM 41.0 °F 31.9 °F 30.2 °F 65% 29.83 in 9.0 mi NW 19.6 mph 27.6 mph N/A   Mostly Cloudy
3:53 PM 39.9 °F 31.4 °F 30.0 °F 68% 29.86 in 9.0 mi NW 16.1 mph 26.5 mph N/A   Mostly Cloudy
4:44 PM 39.2 °F 30.2 °F 28.4 °F 65% 29.85 in 10.0 mi WNW 17.3 mph 26.5 mph N/A   Mostly Cloudy
4:53 PM 39.9 °F 30.8 °F 28.0 °F 63% 29.87 in 10.0 mi WNW 18.4 mph 28.8 mph N/A   Scattered Clouds
5:53 PM 39.0 °F 29.9 °F 27.0 °F 62% 29.88 in 10.0 mi NW 17.3 mph 27.6 mph N/A   Mostly Cloudy
6:53 PM 37.0 °F 26.2 °F 25.0 °F 62% 29.90 in 10.0 mi WNW 21.9 mph 25.3 mph N/A   Scattered Clouds
7:53 PM 35.1 °F 25.9 °F 24.1 °F 64% 29.92 in 10.0 mi NW 13.8 mph - N/A   Partly Cloudy
8:53 PM 33.1 °F 25.5 °F 23.0 °F 66% 29.94 in 10.0 mi NW 9.2 mph - N/A   Clear
9:53 PM 32.0 °F 22.5 °F 23.0 °F 69% 29.97 in 10.0 mi NW 12.7 mph - N/A   Clear
10:53 PM 30.9 °F 21.7 °F 21.9 °F 69% 29.99 in 10.0 mi NW 11.5 mph - N/A   Clear
11:53 PM 30.9 °F 20.2 °F 21.0 °F 67% 30.00 in 10.0 mi NW 15.0 mph - N/A   Clear